Find Starlink 31229

NORAD ID: 58986 Int'l Des: 2024-031 Owner: SPXS Country: US Constellation: starlink operational
LEOCIRCULAR

現在のビュー

3D地球を読み込み中...

About Starlink 31229

Starlink 31229 (NORAD 58986) is a starlink constellation satellite (v2 mini) launched Feb 15, 2024 by SPXS of US. It operates in LEO, CIRCULAR orbit with a mass of 730.00 kg.

Starlink 31229について

説明を読み込み中...

次回通過

Passes for default location (London). Set your location on the main map for personalized predictions.

高度履歴

Loading altitude history...

軌道要素

1 58986U 24031X 26170.35497539 -.00001496 00000-0 -38396-4 0 9992
2 58986 53.1598 184.8124 0001315 95.0400 265.0751 15.30194780132072
Epoch: Jun 19, 2026 • Age: 16 hours

現在のステータス

高度 479.5 km
速度 7.63 km/s
衛星直下点 46.99°N, 30.06°E
打ち上げ日 Feb 15, 2024
運用期間 2.3 years
タイプ internet

技術仕様

分類 Payload
質量 730.00 kg
乾燥質量 700.00 kg
総質量 730.00 kg
長さ 0.30 m
直径 4.10 m
スパン 29.00 m
形状 Box + pan
製造者 SPXS
バスタイプ Starlink V2M
フェーズステータス In Orbit
所有者/国 SPXS/US

Most Searched